Overview Statistics Trail Chart Weather Telemetry Raw packets
 

This is the latest recevied weather packets stored in our database for station/object W8CWV-13. If no packets are shown the sender has not sent any weather packets the latest 10 day(s).

<< 1 2 3 4 >>
Time Temp. Humidity Pressure Rain* Wind** Luminosity Snow
1788616368 25° C 100% 1017.2 hPa - - - -
1788615794 25° C 100% 1015.9 hPa - - - -
1788615222 24.44° C 100% 1015.5 hPa - - - -
1788614647 24.44° C 100% 1024.4 hPa - - - -
1788614079 24.44° C 100% 1025.2 hPa - - - -
1788613493 23.89° C 100% 1024.5 hPa - - - -
1788612919 23.33° C 100% 1027.5 hPa - - - -
1788612342 23.33° C 100% 1062.6 hPa - - - -
1788611763 22.78° C 100% 1067.6 hPa - - - -
1788611194 22.22° C 100% 1067.4 hPa - - - -
1788610620 22.78° C 100% 1067.4 hPa - - - -
1788610045 22.22° C 100% 1066.7 hPa - - - -
1788609467 21.67° C 100% 1065.6 hPa - - - -
1788608892 21.67° C 100% 1064.8 hPa - - - -
1788608319 21.11° C 100% 1064.4 hPa - - - -
1788607747 21.11° C 100% 1063 hPa - - - -
1788607171 20.56° C 100% 1061.9 hPa - - - -
1788606598 20.56° C 100% 1061.3 hPa - - - -
1788606022 20.56° C 100% 1059.7 hPa - - - -
1788605453 20° C 100% 1047 hPa - - - -
1788604870 20° C 100% 1034.3 hPa - - - -
1788604302 20° C 100% 1032.7 hPa - - - -
1788603728 20° C 100% 1030.4 hPa - - - -
1788603148 20° C 100% 1027.1 hPa - - - -
1788602575 20° C 100% 1026.2 hPa - - - -

* Rain since midnight (hover to see other rain measurements)
** Current wind speed in m/s (hover to see current wind gust speed)